GW3448 Weather Reports


Display with metric or nautical units.
time (UTC)temp
F
wind
direction
speed
MPH
gust
MPH
rain 1hr
in
rain 24hr
in
rain mn
in
humidity
%
barometer
mb
20260505204533 80 312 4.0 11.0 0.00 0.00 0.00 44 1010.5
20260505204433 80 327 2.0 11.0 0.00 0.00 0.00 43 1010.5
20260505204331 80 5 2.0 9.0 0.00 0.00 0.00 43 1010.5
20260505204230 80 246 4.0 9.0 0.00 0.00 0.00 43 1010.5
20260505204130 80 302 4.0 9.0 0.00 0.00 0.00 44 1010.6
20260505204030 80 346 3.0 9.0 0.00 0.00 0.00 43 1010.6
20260505203929 80 304 4.0 9.0 0.00 0.00 0.00 43 1010.5
20260505203829 79 349 5.0 9.0 0.00 0.00 0.00 43 1010.5
20260505203727 79 13 5.0 9.0 0.00 0.00 0.00 43 1010.6
20260505203653 79 333 4.0 9.0 0.00 0.00 0.00 43 1010.5
20260505203639 79 329 4.0 9.0 0.00 0.00 0.00 43 1010.6
20260505203628 79 332 4.0 9.0 0.00 0.00 0.00 43 1010.5
20260505203614 79 307 4.0 9.0 0.00 0.00 0.00 44 1010.6
20260505203023 79 31 4.0 9.0 0.00 0.00 0.00 44 1010.6
20260505202922 79 332 4.0 10.0 0.00 0.00 0.00 44 1010.6
20260505202847 79 303 5.0 10.0 0.00 0.00 0.00 43 1010.6
20260505202821 79 351 4.0 10.0 0.00 0.00 0.00 44 1010.6
20260505202810 79 42 4.0 10.0 0.00 0.00 0.00 43 1010.6
20260505202423 79 9 4.0 10.0 0.00 0.00 0.00 42 1010.7
20260505202402 79 311 4.0 10.0 0.00 0.00 0.00 44 1010.6
20260505202338 79 281 5.0 10.0 0.00 0.00 0.00 43 1010.7
20260505202048 79 352 6.0 10.0 0.00 0.00 0.00 43 1010.6
20260505202034 79 290 5.0 10.0 0.00 0.00 0.00 43 1010.6
20260505202023 79 253 3.0 9.0 0.00 0.00 0.00 44 1010.6
20260505201957 79 342 3.0 9.0 0.00 0.00 0.00 43 1010.6
20260505201946 79 330 2.0 9.0 0.00 0.00 0.00 44 1010.7
20260505201713 79 69 3.0 9.0 0.00 0.00 0.00 42 1010.6
20260505201701 79 56 4.0 9.0 0.00 0.00 0.00 42 1010.6
20260505201418 79 341 5.0 9.0 0.00 0.00 0.00 44 1010.6
20260505201147 79 352 3.0 8.0 0.00 0.00 0.00 45 1010.6
20260505200904 79 286 2.0 8.0 0.00 0.00 0.00 44 1010.6
20260505200631 79 348 3.0 9.0 0.00 0.00 0.00 45 1010.6
20260505200355 78 323 3.0 9.0 0.00 0.00 0.00 45 1010.6
20260505200332 78 296 3.0 9.0 0.00 0.00 0.00 44 1010.6
20260505200320 78 325 2.0 9.0 0.00 0.00 0.00 45 1010.6
20260505200049 78 326 3.0 9.0 0.00 0.00 0.00 44 1010.6
20260505195801 78 352 4.0 9.0 0.00 0.00 0.00 44 1010.6
20260505195750 78 270 4.0 9.0 0.00 0.00 0.00 45 1010.7
20260505195736 78 334 3.0 7.0 0.00 0.00 0.00 44 1010.6
20260505195654 78 323 3.0 12.0 0.00 0.00 0.00 45 1010.6
20260505195101 77 352 1.0 12.0 0.00 0.00 0.00 45 1010.6
20260505195004 77 18 2.0 12.0 0.00 0.00 0.00 46 1010.6
20260505194901 77 309 2.0 12.0 0.00 0.00 0.00 44 1010.6
20260505194837 77 272 3.0 12.0 0.00 0.00 0.00 45 1010.6
20260505194811 77 9 5.0 12.0 0.00 0.00 0.00 44 1010.6
20260505194800 77 342 7.0 12.0 0.00 0.00 0.00 44 1010.7
20260505194528 77 5 2.0 10.0 0.00 0.00 0.00 44 1010.6
20260505194204 77 288 2.0 9.0 0.00 0.00 0.00 44 1010.6
20260505194101 77 279 4.0 9.0 0.00 0.00 0.00 45 1010.6
20260505194004 77 332 5.0 9.0 0.00 0.00 0.00 43 1010.7
20260505193904 77 343 5.0 9.0 0.00 0.00 0.00 45 1010.7
20260505193849 77 5 3.0 9.0 0.00 0.00 0.00 44 1010.7
20260505193825 77 323 2.0 9.0 0.00 0.00 0.00 44 1010.7
20260505193501 77 11 5.0 9.0 0.00 0.00 0.00 45 1010.7
20260505193402 77 311 4.0 9.0 0.00 0.00 0.00 45 1010.7
20260505193302 77 346 2.0 9.0 0.00 0.00 0.00 45 1010.7
20260505193202 77 57 2.0 9.0 0.00 0.00 0.00 46 1010.7
20260505193102 77 327 3.0 9.0 0.00 0.00 0.00 45 1010.7
20260505193046 77 296 4.0 9.0 0.00 0.00 0.00 44 1010.6
20260505193034 77 333 4.0 9.0 0.00 0.00 0.00 44 1010.7
20260505192740 77 336 3.0 9.0 0.00 0.00 0.00 45 1010.7
20260505192727 77 283 2.0 9.0 0.00 0.00 0.00 47 1010.8
20260505192403 77 42 3.0 8.0 0.00 0.00 0.00 46 1010.7
20260505192320 77 315 4.0 8.0 0.00 0.00 0.00 45 1010.7
20260505192255 77 269 4.0 8.0 0.00 0.00 0.00 45 1010.7
20260505192243 76 14 3.0 8.0 0.00 0.00 0.00 47 1010.6
20260505192232 76 352 3.0 8.0 0.00 0.00 0.00 47 1010.7
20260505192220 76 313 3.0 8.0 0.00 0.00 0.00 46 1010.7
20260505192209 76 60 2.0 8.0 0.00 0.00 0.00 47 1010.7
20260505191925 76 328 4.0 8.0 0.00 0.00 0.00 48 1010.7
20260505191652 76 244 4.0 9.0 0.00 0.00 0.00 47 1010.7
20260505191101 76 284 4.0 9.0 0.00 0.00 0.00 47 1010.8
20260505191002 75 352 4.0 9.0 0.00 0.00 0.00 47 1010.8
20260505190901 76 9 4.0 9.0 0.00 0.00 0.00 47 1010.8
20260505190802 76 11 4.0 9.0 0.00 0.00 0.00 47 1010.8
20260505190702 76 40 4.0 9.0 0.00 0.00 0.00 47 1010.8
20260505190607 76 27 4.0 9.0 0.00 0.00 0.00 47 1010.8
20260505190533 76 350 3.0 9.0 0.00 0.00 0.00 47 1010.8
20260505190522 76 333 3.0 6.0 0.00 0.00 0.00 47 1010.8
20260505190203 76 292 2.0 7.0 0.00 0.00 0.00 47 1010.8
20260505190002 75 23 4.0 7.0 0.00 0.00 0.00 47 1010.8
20260505185904 75 339 2.0 7.0 0.00 0.00 0.00 47 1010.8
20260505185805 75 74 2.0 7.0 0.00 0.00 0.00 47 1010.8
20260505185735 75 53 3.0 9.0 0.00 0.00 0.00 48 1010.8
20260505185722 75 5 3.0 9.0 0.00 0.00 0.00 49 1010.9
20260505185427 75 287 3.0 9.0 0.00 0.00 0.00 49 1010.8
20260505185304 75 283 2.0 9.0 0.00 0.00 0.00 47 1010.8
20260505185202 75 344 2.0 9.0 0.00 0.00 0.00 47 1010.8
20260505185100 75 69 4.0 9.0 0.00 0.00 0.00 48 1010.8
20260505185005 75 322 4.0 9.0 0.00 0.00 0.00 48 1010.9
20260505184943 75 337 4.0 9.0 0.00 0.00 0.00 47 1010.8
20260505184932 75 274 3.0 9.0 0.00 0.00 0.00 49 1010.9
20260505184635 75 296 4.0 8.0 0.00 0.00 0.00 48 1010.9
20260505184622 75 316 3.0 8.0 0.00 0.00 0.00 49 1010.9
20260505184301 74 350 5.0 9.0 0.00 0.00 0.00 49 1010.9
20260505184203 74 340 6.0 9.0 0.00 0.00 0.00 47 1010.9
20260505184102 74 254 4.0 9.0 0.00 0.00 0.00 47 1010.9
20260505184003 74 251 3.0 11.0 0.00 0.00 0.00 48 1010.9
20260505183902 74 295 3.0 11.0 0.00 0.00 0.00 50 1011.0
20260505183803 74 281 3.0 11.0 0.00 0.00 0.00 48 1010.9
20260505183701 74 275 4.0 11.0 0.00 0.00 0.00 48 1010.9
20260505183603 74 279 5.0 11.0 0.00 0.00 0.00 47 1010.9
20260505183503 74 289 4.0 11.0 0.00 0.00 0.00 47 1011.0
20260505183407 74 352 3.0 11.0 0.00 0.00 0.00 48 1011.0
20260505183349 74 285 5.0 11.0 0.00 0.00 0.00 48 1011.0
20260505183323 74 301 6.0 11.0 0.00 0.00 0.00 49 1010.9
20260505183032 74 252 4.0 9.0 0.00 0.00 0.00 48 1011.0
20260505183020 74 264 3.0 9.0 0.00 0.00 0.00 49 1010.9
20260505182704 73 352 3.0 9.0 0.00 0.00 0.00 50 1011.0
20260505182602 73 344 3.0 9.0 0.00 0.00 0.00 50 1011.0
20260505182509 73 311 4.0 9.0 0.00 0.00 0.00 49 1011.0
20260505182454 73 349 6.0 9.0 0.00 0.00 0.00 49 1011.0
20260505182442 73 5 5.0 9.0 0.00 0.00 0.00 50 1011.0
20260505182419 73 342 4.0 9.0 0.00 0.00 0.00 51 1011.0
20260505182336 73 0 4.0 9.0 0.00 0.00 0.00 51 1011.0
20260505182325 73 352 4.0 9.0 0.00 0.00 0.00 50 1011.0
20260505181822 73 22 3.0 11.0 0.00 0.00 0.00 49 1011.0
20260505181502 73 352 4.0 11.0 0.00 0.00 0.00 50 1011.0
20260505181401 73 285 3.0 11.0 0.00 0.00 0.00 50 1011.0
20260505181301 73 278 3.0 11.0 0.00 0.00 0.00 50 1011.1
20260505181201 73 348 4.0 11.0 0.00 0.00 0.00 50 1011.0
20260505181105 73 325 4.0 11.0 0.00 0.00 0.00 52 1011.0
20260505181001 73 319 3.0 11.0 0.00 0.00 0.00 52 1011.0
20260505180902 72 352 3.0 11.0 0.00 0.00 0.00 52 1011.0
20260505180800 72 17 4.0 10.0 0.00 0.00 0.00 50 1011.0
20260505180702 72 302 4.0 10.0 0.00 0.00 0.00 51 1011.0
20260505180602 72 340 3.0 10.0 0.00 0.00 0.00 50 1011.0
20260505180500 72 271 4.0 10.0 0.00 0.00 0.00 51 1011.0
20260505180400 72 323 5.0 10.0 0.00 0.00 0.00 50 1011.0
20260505180301 72 295 5.0 10.0 0.00 0.00 0.00 49 1011.0
20260505180200 72 292 4.0 10.0 0.00 0.00 0.00 50 1011.0
20260505180000 72 275 4.0 10.0 0.00 0.00 0.00 51 1011.0
20260505175913 72 15 3.0 10.0 0.00 0.00 0.00 51 1011.0
20260505175857 72 333 3.0 10.0 0.00 0.00 0.00 51 1011.0
20260505175834 71 284 3.0 10.0 0.00 0.00 0.00 52 1011.0
20260505175821 71 315 3.0 10.0 0.00 0.00 0.00 51 1011.0
20260505175550 71 313 6.0 10.0 0.00 0.00 0.00 50 1011.0
20260505175305 71 339 3.0 10.0 0.00 0.00 0.00 52 1011.0
20260505175251 71 329 2.0 8.0 0.00 0.00 0.00 53 1011.0
20260505175240 71 5 2.0 8.0 0.00 0.00 0.00 53 1011.0
20260505174938 71 32 3.0 10.0 0.00 0.00 0.00 52 1010.9
20260505174611 71 335 4.0 10.0 0.00 0.00 0.00 52 1010.9
20260505174553 71 0 3.0 10.0 0.00 0.00 0.00 51 1011.0
20260505174539 71 13 3.0 10.0 0.00 0.00 0.00 52 1011.0
20260505174527 70 64 4.0 10.0 0.00 0.00 0.00 52 1011.0
20260505174505 71 352 4.0 10.0 0.00 0.00 0.00 51 1011.0
20260505174453 71 9 4.0 10.0 0.00 0.00 0.00 52 1011.0
20260505174222 70 327 4.0 11.0 0.00 0.00 0.00 52 1011.1
20260505173717 70 315 4.0 11.0 0.00 0.00 0.00 53 1011.0
20260505173356 70 285 5.0 11.0 0.00 0.00 0.00 52 1011.0
20260505173337 70 309 5.0 11.0 0.00 0.00 0.00 54 1011.0
20260505173314 70 15 5.0 11.0 0.00 0.00 0.00 53 1011.0
20260505173010 70 343 2.0 9.0 0.00 0.00 0.00 55 1011.0
20260505172957 69 333 2.0 9.0 0.00 0.00 0.00 55 1011.0
20260505172946 69 340 4.0 10.0 0.00 0.00 0.00 54 1011.0
20260505172921 69 232 5.0 10.0 0.00 0.00 0.00 53 1011.0
20260505172909 69 259 4.0 10.0 0.00 0.00 0.00 53 1011.0
20260505172418 69 307 4.0 10.0 0.00 0.00 0.00 54 1011.0
20260505172051 69 301 6.0 10.0 0.00 0.00 0.00 53 1010.9
20260505171944 69 280 5.0 10.0 0.00 0.00 0.00 53 1011.0
20260505171844 69 284 4.0 10.0 0.00 0.00 0.00 53 1011.0
20260505171742 69 280 4.0 7.0 0.00 0.00 0.00 53 1011.0
20260505171641 69 259 2.0 7.0 0.00 0.00 0.00 54 1011.0
20260505171541 69 0 2.0 7.0 0.00 0.00 0.00 53 1010.9
20260505171511 69 331 4.0 7.0 0.00 0.00 0.00 55 1010.9
20260505171500 69 267 5.0 7.0 0.00 0.00 0.00 54 1010.9
20260505171139 69 319 2.0 11.0 0.00 0.00 0.00 55 1010.9
20260505171037 69 281 2.0 11.0 0.00 0.00 0.00 55 1010.9
20260505170940 68 241 3.0 11.0 0.00 0.00 0.00 55 1010.9
20260505170836 68 248 3.0 11.0 0.00 0.00 0.00 55 1010.9
20260505170734 68 267 3.0 11.0 0.00 0.00 0.00 54 1010.9
20260505170634 68 282 4.0 11.0 0.00 0.00 0.00 54 1010.9
20260505170533 68 234 5.0 11.0 0.00 0.00 0.00 55 1010.9
20260505170431 68 252 6.0 11.0 0.00 0.00 0.00 54 1011.0
20260505170354 68 252 6.0 11.0 0.00 0.00 0.00 54 1010.9
20260505170340 68 284 6.0 11.0 0.00 0.00 0.00 53 1010.9
20260505170317 68 263 5.0 10.0 0.00 0.00 0.00 53 1010.9
20260505170303 68 273 4.0 9.0 0.00 0.00 0.00 54 1011.0
20260505170033 68 245 4.0 9.0 0.00 0.00 0.00 54 1010.9
20260505165751 68 295 4.0 9.0 0.00 0.00 0.00 54 1011.0
20260505165431 68 289 5.0 9.0 0.00 0.00 0.00 54 1011.0
20260505165329 68 257 4.0 9.0 0.00 0.00 0.00 54 1010.9
20260505165230 68 334 3.0 8.0 0.00 0.00 0.00 55 1010.9
20260505165129 68 5 3.0 8.0 0.00 0.00 0.00 55 1011.0
20260505165052 68 9 4.0 8.0 0.00 0.00 0.00 54 1010.9
20260505164928 68 343 4.0 8.0 0.00 0.00 0.00 55 1010.9
20260505164829 68 9 4.0 8.0 0.00 0.00 0.00 55 1011.0
20260505164728 68 348 3.0 8.0 0.00 0.00 0.00 57 1010.9
20260505164631 68 5 4.0 7.0 0.00 0.00 0.00 56 1010.9
20260505164528 67 336 3.0 7.0 0.00 0.00 0.00 56 1010.9
20260505164458 68 24 2.0 6.0 0.00 0.00 0.00 56 1011.0
20260505164445 67 330 2.0 8.0 0.00 0.00 0.00 56 1011.0
20260505164121 67 340 3.0 8.0 0.00 0.00 0.00 56 1011.0
20260505164020 67 0 3.0 8.0 0.00 0.00 0.00 56 1011.0
20260505163920 67 279 3.0 8.0 0.00 0.00 0.00 56 1010.9
20260505163819 67 294 3.0 8.0 0.00 0.00 0.00 56 1011.0
20260505163720 67 271 4.0 8.0 0.00 0.00 0.00 56 1011.0
20260505163620 67 350 5.0 8.0 0.00 0.00 0.00 56 1011.0
20260505163518 67 331 5.0 8.0 0.00 0.00 0.00 56 1011.0
20260505163449 67 329 4.0 8.0 0.00 0.00 0.00 56 1011.0
20260505163436 67 352 3.0 7.0 0.00 0.00 0.00 56 1011.0
20260505163115 67 335 2.0 7.0 0.00 0.00 0.00 56 1010.9
20260505163014 67 339 3.0 8.0 0.00 0.00 0.00 57 1010.9
20260505162913 67 321 3.0 8.0 0.00 0.00 0.00 58 1010.9
20260505162856 67 314 3.0 8.0 0.00 0.00 0.00 56 1010.9
20260505162845 67 352 4.0 8.0 0.00 0.00 0.00 57 1010.8
20260505162512 67 0 2.0 8.0 0.00 0.00 0.00 57 1010.8
20260505162411 67 292 3.0 8.0 0.00 0.00 0.00 58 1010.8
20260505162310 67 318 3.0 8.0 0.00 0.00 0.00 58 1010.7
20260505162209 67 298 4.0 8.0 0.00 0.00 0.00 57 1010.8
20260505162121 67 340 5.0 8.0 0.00 0.00 0.00 56 1010.8
20260505162105 67 321 4.0 8.0 0.00 0.00 0.00 57 1010.7
20260505162054 67 323 4.0 8.0 0.00 0.00 0.00 57 1010.8
20260505162041 67 331 4.0 8.0 0.00 0.00 0.00 58 1010.8
20260505161726 67 317 4.0 8.0 0.00 0.00 0.00 57 1010.8
20260505161401 67 315 3.0 6.0 0.00 0.00 0.00 58 1010.8
20260505161301 67 332 3.0 6.0 0.00 0.00 0.00 58 1010.8
20260505161202 67 311 3.0 4.0 0.00 0.00 0.00 58 1010.7
20260505161101 67 338 3.0 4.0 0.00 0.00 0.00 58 1010.7
20260505161002 67 0 3.0 4.0 0.00 0.00 0.00 58 1010.7
20260505160904 67 281 2.0 6.0 0.00 0.00 0.00 59 1010.7
20260505160845 66 294 2.0 6.0 0.00 0.00 0.00 58 1010.7
20260505160834 66 277 2.0 6.0 0.00 0.00 0.00 59 1010.6
20260505160502 66 250 2.0 6.0 0.00 0.00 0.00 59 1010.7
20260505160400 66 352 3.0 6.0 0.00 0.00 0.00 59 1010.7
20260505160304 66 273 3.0 6.0 0.00 0.00 0.00 59 1010.7
20260505160206 66 350 4.0 6.0 0.00 0.00 0.00 58 1010.6
20260505160134 66 321 3.0 7.0 0.00 0.00 0.00 59 1010.6
20260505160122 66 313 2.0 7.0 0.00 0.00 0.00 59 1010.7
20260505153356 65 278 3.0 7.0 0.00 0.00 0.00 59 1010.4
20260505153255 65 297 3.0 7.0 0.00 0.00 0.00 58 1010.4
20260505153154 65 295 2.0 5.0 0.00 0.00 0.00 58 1010.4
20260505153054 65 290 3.0 7.0 0.00 0.00 0.00 58 1010.4
20260505153019 65 287 2.0 7.0 0.00 0.00 0.00 58 1010.4
20260505153008 65 276 2.0 7.0 0.00 0.00 0.00 59 1010.4
20260505152955 65 321 2.0 7.0 0.00 0.00 0.00 59 1010.3
20260505152710 65 0 2.0 7.0 0.00 0.00 0.00 59 1010.3
20260505152349 65 302 2.0 7.0 0.00 0.00 0.00 60 1010.3
20260505152247 65 248 3.0 7.0 0.00 0.00 0.00 60 1010.3
20260505152146 64 234 3.0 7.0 0.00 0.00 0.00 60 1010.3
20260505152048 64 282 3.0 6.0 0.00 0.00 0.00 60 1010.2
20260505151945 64 239 2.0 5.0 0.00 0.00 0.00 61 1010.2
20260505151852 64 262 1.0 5.0 0.00 0.00 0.00 61 1010.2
20260505151836 64 269 2.0 4.0 0.00 0.00 0.00 61 1010.1
20260505151826 64 277 2.0 4.0 0.00 0.00 0.00 61 1010.2
20260505151801 64 286 2.0 4.0 0.00 0.00 0.00 61 1010.2
20260505151501 64 275 2.0 6.0 0.00 0.00 0.00 62 1010.2
20260505151143 64 255 2.0 8.0 0.00 0.00 0.00 62 1010.3
20260505151040 63 278 2.0 8.0 0.00 0.00 0.00 62 1010.2
20260505150940 63 271 2.0 8.0 0.00 0.00 0.00 62 1010.2
20260505150839 63 252 2.0 8.0 0.00 0.00 0.00 62 1010.2
20260505150738 63 269 2.0 8.0 0.00 0.00 0.00 63 1010.2
20260505150639 63 309 3.0 8.0 0.00 0.00 0.00 62 1010.2
20260505150537 63 272 3.0 8.0 0.00 0.00 0.00 62 1010.2
20260505150507 63 232 4.0 8.0 0.00 0.00 0.00 62 1010.2
20260505150454 63 234 5.0 8.0 0.00 0.00 0.00 61 1010.2
20260505150138 63 278 3.0 7.0 0.00 0.00 0.00 62 1010.2
20260505140623 60 277 2.0 6.0 0.00 0.00 0.00 69 1009.5
20260505140523 60 273 2.0 6.0 0.00 0.00 0.00 69 1009.5
20260505140418 60 272 2.0 6.0 0.00 0.00 0.00 70 1009.4
20260505140318 60 250 3.0 6.0 0.00 0.00 0.00 70 1009.5
20260505140219 60 273 3.0 6.0 0.00 0.00 0.00 70 1009.4
20260505140121 60 234 3.0 7.0 0.00 0.00 0.00 70 1009.5
20260505130234 58 340 1.0 3.0 0.00 0.00 0.00 73 1008.7
20260505130130 58 309 1.0 3.0 0.00 0.00 0.00 73 1008.7
20260505125029 58 318 0.0 3.0 0.00 0.00 0.00 73 1008.6
20260505124930 58 292 1.0 3.0 0.00 0.00 0.00 73 1008.6
20260505124831 58 292 1.0 3.0 0.00 0.00 0.00 73 1008.6
20260505124729 58 269 0.0 3.0 0.00 0.00 0.00 73 1008.6
20260505124630 58 265 0.0 2.0 0.00 0.00 0.00 73 1008.6
20260505124531 58 265 0.0 2.0 0.00 0.00 0.00 73 1008.6
20260505124430 58 265 0.0 2.0 0.00 0.00 0.00 73 1008.6
20260505124330 58 265 0.0 2.0 0.00 0.00 0.00 73 1008.6
20260505124232 58 265 0.0 2.0 0.00 0.00 0.00 73 1008.6
20260505124125 58 265 0.0 2.0 0.00 0.00 0.00 73 1008.6
20260505124023 58 265 1.0 2.0 0.00 0.00 0.00 73 1008.5
20260505123922 58 275 1.0 2.0 0.00 0.00 0.00 73 1008.5
20260505123822 58 264 1.0 2.0 0.00 0.00 0.00 73 1008.5
20260505123722 58 267 1.0 4.0 0.00 0.00 0.00 73 1008.4
20260505123621 58 257 1.0 4.0 0.00 0.00 0.00 73 1008.4
20260505123521 58 279 0.0 4.0 0.00 0.00 0.00 73 1008.4
20260505123419 58 286 0.0 4.0 0.00 0.00 0.00 73 1008.4
20260505123314 58 286 0.0 4.0 0.00 0.00 0.00 73 1008.4
20260505123208 58 286 0.0 4.0 0.00 0.00 0.00 73 1008.4
20260505123107 58 278 0.0 4.0 0.00 0.00 0.00 73 1008.4
20260505123007 58 260 1.0 4.0 0.00 0.00 0.00 73 1008.3
20260505122905 58 352 0.0 4.0 0.00 0.00 0.00 73 1008.3
20260505122822 58 309 0.0 4.0 0.00 0.00 0.00 74 1008.4
20260505122808 58 296 1.0 3.0 0.00 0.00 0.00 74 1008.3
20260505122746 58 294 2.0 3.0 0.00 0.00 0.00 74 1008.3
20260505122736 58 277 2.0 3.0 0.00 0.00 0.00 74 1008.3
20260505122724 58 298 2.0 3.0 0.00 0.00 0.00 74 1008.2
20260505122712 58 281 0.0 3.0 0.00 0.00 0.00 74 1008.2
20260505121934 58 299 1.0 3.0 0.00 0.00 0.00 74 1008.2
20260505121923 58 301 1.0 3.0 0.00 0.00 0.00 75 1008.1
20260505121633 58 338 1.0 3.0 0.00 0.00 0.00 75 1008.0
20260505121622 58 295 1.0 3.0 0.00 0.00 0.00 75 1008.0
20260505121301 58 283 0.0 2.0 0.00 0.00 0.00 75 1008.0
20260505121203 59 274 0.0 2.0 0.00 0.00 0.00 75 1008.0
20260505121131 59 288 0.0 2.0 0.00 0.00 0.00 75 1008.0
20260505121119 59 288 0.0 2.0 0.00 0.00 0.00 75 1007.9
20260505120806 59 288 0.0 2.0 0.00 0.00 0.00 75 1007.9
20260505120705 59 288 0.0 2.0 0.00 0.00 0.00 75 1007.9
20260505120636 59 288 0.0 2.0 0.00 0.00 0.00 75 1007.9
20260505120623 59 287 0.0 2.0 0.00 0.00 0.00 75 1007.9
20260505120301 59 259 1.0 2.0 0.00 0.00 0.00 75 1007.8
20260505120245 59 259 1.0 2.0 0.00 0.00 0.00 75 1007.8
20260505120221 59 258 1.0 2.0 0.00 0.00 0.00 75 1007.8
20260505115900 59 261 0.0 2.0 0.00 0.00 0.00 75 1007.8
20260505115841 59 262 0.0 1.0 0.00 0.00 0.00 75 1007.8
20260505115832 59 252 0.0 0.0 0.00 0.00 0.00 75 1007.8
20260505115502 59 252 0.0 0.0 0.00 0.00 0.00 74 1007.7
20260505115402 59 252 0.0 0.0 0.00 0.00 0.00 75 1007.7
20260505115305 59 252 0.0 0.0 0.00 0.00 0.00 74 1007.7
20260505115203 59 252 0.0 0.0 0.00 0.00 0.00 75 1007.7
20260505115102 59 252 0.0 0.0 0.00 0.00 0.00 75 1007.7
20260505115001 59 252 0.0 0.0 0.00 0.00 0.00 74 1007.7
20260505114901 59 252 0.0 0.0 0.00 0.00 0.00 74 1007.7
20260505114838 59 252 0.0 0.0 0.00 0.00 0.00 74 1007.7
20260505114825 59 252 0.0 0.0 0.00 0.00 0.00 74 1007.7
20260505114759 59 252 0.0 1.0 0.00 0.00 0.00 74 1007.7
20260505114533 59 252 0.0 2.0 0.00 0.00 0.00 74 1007.7
20260505114302 59 252 0.0 2.0 0.00 0.00 0.00 74 1007.6
20260505114239 59 252 0.0 2.0 0.00 0.00 0.00 74 1007.6
20260505113857 60 252 0.0 2.0 0.00 0.00 0.00 74 1007.6
20260505113843 60 252 0.0 2.0 0.00 0.00 0.00 74 1007.6
20260505113833 60 252 1.0 2.0 0.00 0.00 0.00 74 1007.7
20260505113807 60 248 1.0 2.0 0.00 0.00 0.00 74 1007.6
20260505113229 60 259 1.0 2.0 0.00 0.00 0.00 74 1007.6
20260505113131 60 255 0.0 2.0 0.00 0.00 0.00 74 1007.6
20260505113030 60 281 0.0 0.0 0.00 0.00 0.00 74 1007.6
20260505112931 60 281 0.0 0.0 0.00 0.00 0.00 74 1007.6
20260505112829 60 281 0.0 0.0 0.00 0.00 0.00 73 1007.6
20260505112733 60 281 0.0 0.0 0.00 0.00 0.00 73 1007.6
20260505112713 60 281 0.0 0.0 0.00 0.00 0.00 73 1007.6
20260505112649 60 281 0.0 2.0 0.00 0.00 0.00 73 1007.5
20260505112333 60 281 0.0 2.0 0.00 0.00 0.00 73 1007.6
20260505112230 60 281 0.0 2.0 0.00 0.00 0.00 73 1007.5
20260505112129 60 281 0.0 2.0 0.00 0.00 0.00 73 1007.5
20260505112029 60 281 0.0 2.0 0.00 0.00 0.00 73 1007.5
20260505111930 60 281 0.0 2.0 0.00 0.00 0.00 73 1007.5
20260505111831 60 281 0.0 2.0 0.00 0.00 0.00 73 1007.5
20260505111810 60 281 1.0 2.0 0.00 0.00 0.00 73 1007.4
20260505111800 60 281 1.0 2.0 0.00 0.00 0.00 73 1007.4
20260505111429 60 285 1.0 2.0 0.00 0.00 0.00 73 1007.4
20260505111329 60 287 1.0 2.0 0.00 0.00 0.00 73 1007.4
20260505111231 60 284 1.0 2.0 0.00 0.00 0.00 73 1007.3
20260505111152 60 284 1.0 2.0 0.00 0.00 0.00 73 1007.3
20260505111127 61 284 1.0 2.0 0.00 0.00 0.00 73 1007.3
20260505111116 61 291 2.0 6.0 0.00 0.00 0.00 72 1007.3
20260505110809 61 281 1.0 6.0 0.00 0.00 0.00 72 1007.3
20260505110759 61 277 1.0 6.0 0.00 0.00 0.00 72 1007.3
20260505110426 61 284 1.0 6.0 0.00 0.00 0.00 71 1007.3
20260505110325 61 294 1.0 6.0 0.00 0.00 0.00 71 1007.3
20260505110224 61 300 1.0 6.0 0.00 0.00 0.00 71 1007.3
20260505110124 61 290 2.0 6.0 0.00 0.00 0.00 71 1007.2
20260505101903 61 190 0.0 0.0 0.00 0.00 0.00 66 1006.5
20260505101804 61 190 0.0 0.0 0.00 0.00 0.00 65 1006.5
20260505101702 61 190 0.0 0.0 0.00 0.00 0.00 65 1006.5
20260505101604 61 190 0.0 0.0 0.00 0.00 0.00 65 1006.4
20260505101501 61 190 0.0 0.0 0.00 0.00 0.00 65 1006.4
20260505101405 61 190 0.0 0.0 0.00 0.00 0.00 64 1006.4
20260505101303 61 190 0.0 0.0 0.00 0.00 0.00 64 1006.4
20260505101203 61 190 0.0 0.0 0.00 0.00 0.00 64 1006.3
20260505101103 61 190 0.0 0.0 0.00 0.00 0.00 64 1006.4
20260505101003 61 190 0.0 0.0 0.00 0.00 0.00 64 1006.3
20260505100903 62 190 0.0 0.0 0.00 0.00 0.00 63 1006.3
20260505100823 62 190 0.0 0.0 0.00 0.00 0.00 63 1006.3
20260505100702 62 190 0.0 0.0 0.00 0.00 0.00 63 1006.3
20260505100603 62 190 0.0 0.0 0.00 0.00 0.00 63 1006.3
20260505100528 62 190 0.0 0.0 0.00 0.00 0.00 63 1006.3
20260505100521 62 190 0.0 0.0 0.00 0.00 0.00 63 1006.3
20260505100208 62 190 0.0 0.0 0.00 0.00 0.00 63 1006.3
20260505100149 62 190 0.0 0.0 0.00 0.00 0.00 63 1006.3
20260505100127 62 190 0.0 0.0 0.00 0.00 0.00 63 1006.3
20260505100115 62 190 0.0 0.0 0.00 0.00 0.00 63 1006.3
20260505100105 62 190 0.0 1.0 0.00 0.00 0.00 64 1006.3
20260505095837 62 190 0.0 2.0 0.00 0.00 0.00 64 1006.3
20260505095248 62 190 0.0 2.0 0.00 0.00 0.00 64 1006.2
20260505095137 62 190 0.0 2.0 0.00 0.00 0.00 64 1006.2
20260505095031 62 190 0.0 2.0 0.00 0.00 0.00 64 1006.2
20260505094930 62 190 1.0 2.0 0.00 0.00 0.00 65 1006.3
20260505094829 62 179 1.0 2.0 0.00 0.00 0.00 65 1006.3
20260505094732 62 192 2.0 2.0 0.00 0.00 0.00 64 1006.3
20260505094657 62 183 1.0 2.0 0.00 0.00 0.00 64 1006.3
20260505094632 62 194 0.0 2.0 0.00 0.00 0.00 65 1006.3
20260505094622 62 225 0.0 0.0 0.00 0.00 0.00 65 1006.3
20260505094350 62 225 0.0 0.0 0.00 0.00 0.00 65 1006.2
20260505094030 62 225 0.0 0.0 0.00 0.00 0.00 67 1006.3
20260505093930 62 225 0.0 0.0 0.00 0.00 0.00 67 1006.3
20260505093832 62 225 0.0 0.0 0.00 0.00 0.00 68 1006.3
20260505093755 62 225 0.0 0.0 0.00 0.00 0.00 68 1006.3
20260505093713 62 225 0.0 0.0 0.00 0.00 0.00 68 1006.3
20260505093659 62 225 0.0 0.0 0.00 0.00 0.00 68 1006.3
20260505093330 63 225 0.0 0.0 0.00 0.00 0.00 67 1006.4
20260505093231 63 225 0.0 0.0 0.00 0.00 0.00 67 1006.4
20260505093128 63 225 0.0 0.0 0.00 0.00 0.00 67 1006.4
20260505093101 63 225 0.0 0.0 0.00 0.00 0.00 67 1006.3
20260505093040 63 225 0.0 0.0 0.00 0.00 0.00 67 1006.4
20260505092712 63 225 0.0 0.0 0.00 0.00 0.00 67 1006.3
20260505092610 63 225 0.0 0.0 0.00 0.00 0.00 67 1006.4
20260505092503 63 225 0.0 0.0 0.00 0.00 0.00 67 1006.3
20260505092403 63 225 0.0 0.0 0.00 0.00 0.00 67 1006.4
20260505092305 63 225 0.0 0.0 0.00 0.00 0.00 67 1006.3
20260505092202 63 225 0.0 0.0 0.00 0.00 0.00 66 1006.4
20260505092143 63 225 0.0 0.0 0.00 0.00 0.00 66 1006.4
20260505092121 63 225 0.0 0.0 0.00 0.00 0.00 66 1006.4
20260505091802 63 225 0.0 0.0 0.00 0.00 0.00 66 1006.4
20260505091705 63 225 0.0 0.0 0.00 0.00 0.00 66 1006.4
20260505091603 63 225 0.0 0.0 0.00 0.00 0.00 66 1006.3
20260505091503 63 225 0.0 0.0 0.00 0.00 0.00 66 1006.3
20260505091432 63 225 0.0 0.0 0.00 0.00 0.00 66 1006.3
20260505091420 63 225 0.0 0.0 0.00 0.00 0.00 66 1006.4
20260505091103 64 225 0.0 0.0 0.00 0.00 0.00 66 1006.3
20260505091002 64 225 0.0 0.0 0.00 0.00 0.00 66 1006.3
20260505090905 64 225 0.0 0.0 0.00 0.00 0.00 65 1006.3
20260505090801 64 225 0.0 0.0 0.00 0.00 0.00 66 1006.3
20260505090726 64 225 0.0 0.0 0.00 0.00 0.00 66 1006.3
20260505090643 64 225 0.0 0.0 0.00 0.00 0.00 65 1006.3
20260505090619 64 225 0.0 0.0 0.00 0.00 0.00 65 1006.2
20260505090301 64 225 0.0 0.0 0.00 0.00 0.00 65 1006.2
20260505090204 64 225 0.0 0.0 0.00 0.00 0.00 65 1006.2
20260505090142 64 225 0.0 0.0 0.00 0.00 0.00 65 1006.2
20260505090122 64 225 0.0 0.0 0.00 0.00 0.00 64 1006.1
20260505085802 64 225 0.0 0.0 0.00 0.00 0.00 64 1006.2
20260505085745 64 225 0.0 0.0 0.00 0.00 0.00 64 1006.1
20260505085732 64 225 0.0 0.0 0.00 0.00 0.00 64 1006.1
20260505085405 64 225 0.0 0.0 0.00 0.00 0.00 65 1006.1
20260505085304 64 225 0.0 0.0 0.00 0.00 0.00 64 1006.1
20260505085201 64 225 0.0 0.0 0.00 0.00 0.00 64 1006.1
20260505085104 64 225 0.0 0.0 0.00 0.00 0.00 64 1006.2
20260505085002 64 225 0.0 0.0 0.00 0.00 0.00 64 1006.1
20260505084901 64 225 0.0 0.0 0.00 0.00 0.00 64 1006.2
20260505084801 64 225 0.0 0.0 0.00 0.00 0.00 64 1006.2
20260505084703 64 225 0.0 0.0 0.00 0.00 0.00 64 1006.2
20260505084601 64 225 0.0 0.0 0.00 0.00 0.00 64 1006.1
20260505084501 64 225 0.0 0.0 0.00 0.00 0.00 63 1006.2
20260505084402 64 225 0.0 0.0 0.00 0.00 0.00 63 1006.2
20260505084332 64 225 0.0 0.0 0.00 0.00 0.00 63 1006.1
20260505084322 64 225 0.0 0.0 0.00 0.00 0.00 63 1006.1
20260505084000 64 225 0.0 0.0 0.00 0.00 0.00 63 1006.1
20260505083850 64 225 0.0 0.0 0.00 0.00 0.00 63 1006.1
20260505083744 64 225 0.0 0.0 0.00 0.00 0.00 63 1006.1
20260505083714 64 225 0.0 0.0 0.00 0.00 0.00 63 1006.1
20260505083631 64 225 0.0 0.0 0.00 0.00 0.00 62 1006.1
20260505083607 64 225 0.0 0.0 0.00 0.00 0.00 62 1006.1
20260505083556 64 225 0.0 0.0 0.00 0.00 0.00 62 1006.1
20260505083329 64 225 0.0 0.0 0.00 0.00 0.00 62 1006.1
20260505083315 64 225 0.0 0.0 0.00 0.00 0.00 62 1006.1
20260505082737 64 225 0.0 0.0 0.00 0.00 0.00 62 1006.1
20260505082720 64 225 0.0 0.0 0.00 0.00 0.00 62 1006.0
20260505082710 64 225 0.0 0.0 0.00 0.00 0.00 62 1006.0
20260505082649 64 225 0.0 0.0 0.00 0.00 0.00 62 1006.0
20260505082604 64 225 0.0 0.0 0.00 0.00 0.00 62 1006.0
20260505082333 64 225 0.0 0.0 0.00 0.00 0.00 62 1006.0
20260505082051 64 225 0.0 0.0 0.00 0.00 0.00 62 1006.1
20260505081822 64 225 0.0 0.0 0.00 0.00 0.00 61 1006.1
20260505081812 64 225 0.0 0.0 0.00 0.00 0.00 61 1006.1
20260505081210 64 225 0.0 0.0 0.00 0.00 0.00 61 1006.0
20260505081110 64 225 0.0 0.0 0.00 0.00 0.00 60 1005.9
20260505081009 64 225 0.0 0.0 0.00 0.00 0.00 59 1006.0
20260505080904 64 225 0.0 0.0 0.00 0.00 0.00 59 1006.0
20260505080802 64 225 0.0 0.0 0.00 0.00 0.00 59 1005.9
20260505080723 64 225 0.0 0.0 0.00 0.00 0.00 59 1005.9
20260505080713 64 225 0.0 0.0 0.00 0.00 0.00 59 1005.9
20260505080705 64 225 0.0 1.0 0.00 0.00 0.00 58 1005.9
20260505080302 64 225 0.0 1.0 0.00 0.00 0.00 59 1005.9
20260505080202 64 225 0.0 1.0 0.00 0.00 0.00 59 1005.9
20260505080104 64 225 0.0 1.0 0.00 0.00 0.00 60 1005.8
20260505080004 64 225 0.0 2.0 0.00 0.00 0.00 59 1005.9
20260505075903 64 225 0.0 2.0 0.00 0.00 0.00 60 1005.9
20260505075829 64 225 0.0 2.0 0.00 0.00 0.00 59 1005.9
20260505075820 64 225 0.0 2.0 0.00 0.00 0.00 59 1005.9
20260505075502 64 228 0.0 2.0 0.00 0.00 0.00 59 1005.9
20260505075403 64 255 0.0 2.0 0.00 0.00 0.00 58 1005.9
20260505075304 64 255 1.0 2.0 0.00 0.00 0.00 57 1005.8
20260505075201 64 255 1.0 2.0 0.00 0.00 0.00 56 1005.9
20260505075122 64 259 1.0 2.0 0.00 0.00 0.00 57 1005.8
20260505075106 64 265 0.0 2.0 0.00 0.00 0.00 58 1005.9
20260505075044 64 303 0.0 2.0 0.00 0.00 0.00 60 1005.9
20260505075031 64 304 0.0 2.0 0.00 0.00 0.00 60 1005.9
20260505074805 64 278 0.0 2.0 0.00 0.00 0.00 60 1005.8
20260505074753 64 274 0.0 3.0 0.00 0.00 0.00 60 1005.8
20260505074201 65 267 0.0 3.0 0.00 0.00 0.00 60 1005.7
20260505074103 64 267 1.0 3.0 0.00 0.00 0.00 60 1005.8
20260505074002 64 267 1.0 3.0 0.00 0.00 0.00 60 1005.7
20260505073902 64 265 2.0 3.0 0.00 0.00 0.00 61 1005.7
20260505073801 64 258 2.0 3.0 0.00 0.00 0.00 61 1005.7
20260505073702 64 263 1.0 3.0 0.00 0.00 0.00 61 1005.7
20260505073602 64 260 0.0 3.0 0.00 0.00 0.00 61 1005.7
20260505073504 64 260 0.0 0.0 0.00 0.00 0.00 61 1005.7
20260505073404 64 260 0.0 0.0 0.00 0.00 0.00 61 1005.7
20260505073304 64 260 0.0 0.0 0.00 0.00 0.00 60 1005.6
20260505073201 64 260 0.0 0.0 0.00 0.00 0.00 61 1005.7
20260505073103 64 260 0.0 0.0 0.00 0.00 0.00 60 1005.6
20260505073001 64 260 0.0 1.0 0.00 0.00 0.00 60 1005.6
20260505072903 64 260 0.0 2.0 0.00 0.00 0.00 60 1005.6
20260505072801 64 260 0.0 2.0 0.00 0.00 0.00 60 1005.6
20260505072726 64 260 0.0 2.0 0.00 0.00 0.00 60 1005.6
20260505072716 64 260 0.0 2.0 0.00 0.00 0.00 60 1005.5
20260505072705 64 260 0.0 2.0 0.00 0.00 0.00 59 1005.5
20260505072641 64 260 0.0 2.0 0.00 0.00 0.00 59 1005.5
20260505072104 64 260 1.0 2.0 0.00 0.00 0.00 60 1005.4
20260505072004 65 261 0.0 2.0 0.00 0.00 0.00 61 1005.4
20260505071905 65 205 0.0 1.0 0.00 0.00 0.00 61 1005.5
20260505071804 65 200 0.0 1.0 0.00 0.00 0.00 62 1005.5
20260505071704 65 200 0.0 1.0 0.00 0.00 0.00 61 1005.5
20260505071641 65 200 0.0 1.0 0.00 0.00 0.00 61 1005.4
20260505071632 65 200 0.0 1.0 0.00 0.00 0.00 61 1005.5
20260505071305 65 200 0.0 1.0 0.00 0.00 0.00 60 1005.5
20260505071202 65 200 1.0 1.0 0.00 0.00 0.00 60 1005.5
20260505071108 65 198 1.0 1.0 0.00 0.00 0.00 60 1005.5
20260505071000 65 193 0.0 1.0 0.00 0.00 0.00 60 1005.5
20260505070902 65 170 0.0 2.0 0.00 0.00 0.00 60 1005.5
20260505070802 66 146 0.0 2.0 0.00 0.00 0.00 60 1005.5
20260505070702 66 146 0.0 2.0 0.00 0.00 0.00 60 1005.5
20260505070602 66 146 0.0 2.0 0.00 0.00 0.00 60 1005.5
20260505070502 66 146 0.0 2.0 0.00 0.00 0.00 60 1005.4
20260505070403 66 146 0.0 2.0 0.00 0.00 0.00 60 1005.4
20260505070302 66 147 0.0 2.0 0.00 0.00 0.00 59 1005.4
20260505070201 66 184 0.0 2.0 0.00 0.00 0.00 59 1005.3
20260505070000 66 184 1.0 2.0 0.00 0.00 0.00 59 1005.4
20260505065903 66 180 1.0 2.0 0.00 0.00 0.00 59 1005.4
20260505065803 66 173 1.0 2.0 0.00 0.00 0.00 58 1005.4
20260505065706 66 168 1.0 2.0 0.00 0.00 0.00 58 1005.4
20260505065600 66 134 1.0 3.0 0.00 0.00 0.00 58 1005.4
20260505065504 66 117 1.0 3.0 0.00 0.00 0.00 58 1005.4
20260505065400 67 114 1.0 3.0 0.00 0.00 0.00 58 1005.4
20260505065303 67 107 0.0 3.0 0.00 0.00 0.00 58 1005.4
20260505065232 67 105 0.0 3.0 0.00 0.00 0.00 58 1005.4
20260505065223 67 76 1.0 3.0 0.00 0.00 0.00 58 1005.3
20260505064902 67 74 1.0 3.0 0.00 0.00 0.00 57 1005.3
20260505064802 67 69 0.0 3.0 0.00 0.00 0.00 57 1005.3
20260505064702 67 67 0.0 3.0 0.00 0.00 0.00 57 1005.3
20260505064601 67 73 0.0 0.0 0.00 0.00 0.00 57 1005.3
20260505064502 67 73 0.0 0.0 0.00 0.00 0.00 56 1005.2
20260505064402 67 73 0.0 0.0 0.00 0.00 0.00 56 1005.2
20260505064305 67 73 0.0 0.0 0.00 0.00 0.00 55 1005.2
20260505064202 67 73 0.0 0.0 0.00 0.00 0.00 55 1005.1
20260505064107 67 73 0.0 0.0 0.00 0.00 0.00 55 1005.1
20260505064002 67 73 0.0 0.0 0.00 0.00 0.00 55 1005.1
20260505063902 67 73 0.0 0.0 0.00 0.00 0.00 55 1005.0
20260505063800 67 73 0.0 0.0 0.00 0.00 0.00 55 1005.1
20260505063720 67 73 0.0 0.0 0.00 0.00 0.00 56 1005.1
20260505063706 67 73 0.0 0.0 0.00 0.00 0.00 54 1005.0
20260505063655 67 73 0.0 0.0 0.00 0.00 0.00 55 1005.0
20260505063603 67 73 0.0 0.0 0.00 0.00 0.00 54 1005.0
20260505063336 67 73 0.0 0.0 0.00 0.00 0.00 53 1005.0
20260505063322 68 73 0.0 0.0 0.00 0.00 0.00 53 1005.0
20260505062729 68 73 0.0 0.0 0.00 0.00 0.00 54 1005.0
20260505062635 68 73 0.0 0.0 0.00 0.00 0.00 53 1005.0
20260505062534 68 73 0.0 0.0 0.00 0.00 0.00 53 1005.0
20260505062514 68 73 0.0 0.0 0.00 0.00 0.00 52 1004.9
20260505062452 68 73 0.0 0.0 0.00 0.00 0.00 52 1005.0
20260505062130 68 73 0.0 0.0 0.00 0.00 0.00 53 1005.0
20260505062030 68 73 0.0 0.0 0.00 0.00 0.00 53 1005.0
20260505061955 68 73 0.0 0.0 0.00 0.00 0.00 53 1004.9
20260505061928 69 73 0.0 0.0 0.00 0.00 0.00 53 1004.9
20260505061919 69 73 0.0 0.0 0.00 0.00 0.00 53 1005.0
20260505061907 69 73 0.0 0.0 0.00 0.00 0.00 52 1005.0
20260505061329 69 73 0.0 0.0 0.00 0.00 0.00 52 1005.0
20260505061230 69 73 0.0 0.0 0.00 0.00 0.00 53 1005.0
20260505061129 69 73 0.0 0.0 0.00 0.00 0.00 52 1005.0
20260505061030 69 73 0.0 0.0 0.00 0.00 0.00 52 1005.1
20260505060928 69 73 0.0 0.0 0.00 0.00 0.00 52 1005.1
20260505060831 70 73 0.0 0.0 0.00 0.00 0.00 53 1005.1
20260505060726 70 73 0.0 0.0 0.00 0.00 0.00 55 1005.1
20260505060618 70 73 0.0 0.0 0.00 0.00 0.00 51 1005.1
20260505060507 70 73 0.0 0.0 0.00 0.00 0.00 51 1005.0
20260505060408 70 73 0.0 1.0 0.00 0.00 0.00 51 1005.0
20260505060307 70 73 0.0 1.0 0.00 0.00 0.00 51 1005.0
20260505060201 70 73 0.0 1.0 0.00 0.00 0.00 52 1005.1
20260505060105 70 73 0.0 1.0 0.00 0.00 0.00 51 1005.1
20260505060002 70 73 0.0 2.0 0.00 0.00 0.00 50 1005.1
20260505055909 70 73 0.0 2.0 0.00 0.00 0.00 50 1005.2
20260505055802 70 73 0.0 2.0 0.00 0.00 0.00 50 1005.1
20260505055703 70 73 0.0 2.0 0.00 0.00 0.00 50 1005.1
20260505055601 70 73 0.0 2.0 0.00 0.00 0.00 49 1005.1
20260505055502 70 73 1.0 2.0 0.00 0.00 0.00 49 1005.1
20260505055407 71 71 0.0 3.0 0.00 0.00 0.00 49 1005.1
20260505055303 70 44 0.0 3.0 0.00 0.00 0.00 48 1005.1
20260505055201 71 20 1.0 3.0 0.00 0.00 0.00 48 1005.2
20260505055113 71 13 0.0 3.0 0.00 0.00 0.00 48 1005.1
20260505055057 71 17 0.0 3.0 0.00 0.00 0.00 48 1005.0
20260505055047 70 319 0.0 3.0 0.00 0.00 0.00 47 1004.9
20260505055026 70 319 1.0 3.0 0.00 0.00 0.00 47 1004.9
20260505054533 70 344 1.0 3.0 0.00 0.00 0.00 46 1004.9
20260505054521 71 58 2.0 3.0 0.00 0.00 0.00 45 1004.9
20260505054458 71 46 2.0 3.0 0.00 0.00 0.00 45 1004.8
20260505054445 71 67 1.0 3.0 0.00 0.00 0.00 45 1004.7
20260505054433 71 77 0.0 1.0 0.00 0.00 0.00 45 1004.6
20260505054419 71 150 0.0 1.0 0.00 0.00 0.00 44 1004.5
20260505053703 71 221 0.0 1.0 0.00 0.00 0.00 45 1004.4
20260505053331 71 262 0.0 1.0 0.00 0.00 0.00 45 1004.4
20260505053230 71 262 1.0 1.0 0.00 0.00 0.00 44 1004.4
20260505053130 71 261 1.0 1.0 0.00 0.00 0.00 44 1004.4
20260505053032 71 257 1.0 1.0 0.00 0.00 0.00 44 1004.4
20260505052929 71 260 0.0 1.0 0.00 0.00 0.00 44 1004.4
20260505052830 71 252 1.0 1.0 0.00 0.00 0.00 44 1004.4
20260505052729 71 250 1.0 1.0 0.00 0.00 0.00 45 1004.4
20260505052630 72 246 1.0 1.0 0.00 0.00 0.00 44 1004.5
20260505052611 72 244 1.0 1.0 0.00 0.00 0.00 44 1004.4
20260505052601 72 244 0.0 1.0 0.00 0.00 0.00 44 1004.5
20260505052312 72 246 0.0 1.0 0.00 0.00 0.00 45 1004.4
20260505052259 72 246 0.0 1.0 0.00 0.00 0.00 44 1004.5
20260505052248 72 246 0.0 1.0 0.00 0.00 0.00 44 1004.4
20260505052238 72 246 0.0 1.0 0.00 0.00 0.00 44 1004.5
20260505052216 72 246 0.0 1.0 0.00 0.00 0.00 44 1004.5
20260505052205 73 249 0.0 1.0 0.00 0.00 0.00 44 1004.5
20260505051449 73 257 0.0 1.0 0.00 0.00 0.00 43 1004.5
20260505051438 73 257 0.0 1.0 0.00 0.00 0.00 43 1004.5
20260505051204 73 257 0.0 1.0 0.00 0.00 0.00 42 1004.4
20260505051152 73 257 0.0 1.0 0.00 0.00 0.00 41 1004.4
20260505050602 73 257 1.0 2.0 0.00 0.00 0.00 41 1004.4
20260505050502 74 258 0.0 2.0 0.00 0.00 0.00 40 1004.4
20260505050401 74 258 0.0 2.0 0.00 0.00 0.00 41 1004.4
20260505050302 74 258 0.0 2.0 0.00 0.00 0.00 41 1004.4
20260505050202 74 258 0.0 2.0 0.00 0.00 0.00 40 1004.4
20260505050131 74 258 1.0 2.0 0.00 0.00 0.00 40 1004.4
20260505050117 74 258 2.0 2.0 0.00 0.00 0.00 40 1004.4
20260505050106 74 257 1.0 2.0 0.00 0.00 0.00 39 1004.4
20260505041733 76 173 0.0 3.0 0.00 0.00 0.00 36 1004.2
20260505041722 76 192 0.0 3.0 0.00 0.00 0.00 36 1004.2
20260505041405 76 189 1.0 3.0 0.00 0.00 0.00 37 1004.1
20260505041301 76 178 1.0 3.0 0.00 0.00 0.00 35 1004.1
20260505041202 76 158 1.0 3.0 0.00 0.00 0.00 36 1004.1
20260505041136 76 158 1.0 3.0 0.00 0.00 0.00 36 1004.1
20260505041122 76 186 0.0 3.0 0.00 0.00 0.00 36 1004.1
20260505041110 76 184 0.0 2.0 0.00 0.00 0.00 37 1004.1
20260505041047 76 184 0.0 2.0 0.00 0.00 0.00 37 1004.1
20260505040502 76 184 0.0 2.0 0.00 0.00 0.00 38 1004.1
20260505040406 76 184 0.0 2.0 0.00 0.00 0.00 38 1004.1
20260505040319 76 184 1.0 2.0 0.00 0.00 0.00 37 1004.1
20260505040202 76 184 1.0 2.0 0.00 0.00 0.00 37 1004.1
20260505040103 76 182 1.0 2.0 0.00 0.00 0.00 36 1004.0
20260505040006 76 187 0.0 2.0 0.00 0.00 0.00 36 1004.0
20260505035902 76 194 0.0 1.0 0.00 0.00 0.00 37 1004.1
20260505035807 76 203 0.0 1.0 0.00 0.00 0.00 38 1004.1
20260505035701 76 206 0.0 1.0 0.00 0.00 0.00 38 1004.0
20260505035601 76 206 0.0 1.0 0.00 0.00 0.00 38 1004.1
20260505035544 76 206 0.0 1.0 0.00 0.00 0.00 37 1004.0
20260505035535 76 206 0.0 1.0 0.00 0.00 0.00 37 1004.0
20260505035204 77 205 0.0 1.0 0.00 0.00 0.00 37 1004.0
20260505035105 77 205 0.0 1.0 0.00 0.00 0.00 37 1004.0
20260505035003 77 205 0.0 1.0 0.00 0.00 0.00 37 1004.0
20260505034906 77 205 0.0 1.0 0.00 0.00 0.00 38 1004.0
20260505034802 77 205 0.0 1.0 0.00 0.00 0.00 38 1004.0
20260505034727 77 205 0.0 1.0 0.00 0.00 0.00 39 1003.9
20260505034720 77 205 0.0 1.0 0.00 0.00 0.00 39 1003.9
20260505034405 77 205 0.0 1.0 0.00 0.00 0.00 39 1003.9
20260505034301 77 205 0.0 1.0 0.00 0.00 0.00 39 1003.9
20260505034202 77 205 0.0 1.0 0.00 0.00 0.00 39 1003.9
20260505034105 77 205 0.0 1.0 0.00 0.00 0.00 39 1003.9
20260505034041 78 207 0.0 1.0 0.00 0.00 0.00 39 1003.9
20260505034033 78 209 0.0 1.0 0.00 0.00 0.00 39 1003.9
20260505033701 78 209 0.0 1.0 0.00 0.00 0.00 39 1003.9
20260505033602 78 213 0.0 1.0 0.00 0.00 0.00 39 1003.9
20260505033501 78 214 0.0 1.0 0.00 0.00 0.00 39 1003.9
20260505033402 78 214 0.0 1.0 0.00 0.00 0.00 39 1003.9
20260505033326 78 214 0.0 1.0 0.00 0.00 0.00 38 1003.9
20260505033303 78 214 0.0 1.0 0.00 0.00 0.00 40 1003.8
20260505033252 78 214 0.0 1.0 0.00 0.00 0.00 39 1003.9
20260505032901 79 214 0.0 1.0 0.00 0.00 0.00 39 1003.9
20260505032813 79 214 0.0 1.0 0.00 0.00 0.00 38 1003.8
20260505032702 79 214 0.0 1.0 0.00 0.00 0.00 38 1003.8
20260505032604 79 215 0.0 1.0 0.00 0.00 0.00 37 1003.8
20260505032501 79 215 0.0 1.0 0.00 0.00 0.00 36 1003.9
20260505032446 80 218 0.0 1.0 0.00 0.00 0.00 36 1003.8
20260505032434 80 224 0.0 1.0 0.00 0.00 0.00 36 1003.8
20260505032131 80 228 0.0 1.0 0.00 0.00 0.00 35 1003.8
20260505032121 80 228 0.0 1.0 0.00 0.00 0.00 35 1003.8
20260505031809 81 233 0.0 1.0 0.00 0.00 0.00 35 1003.8
20260505031731 81 242 0.0 0.0 0.00 0.00 0.00 34 1003.8
20260505031721 81 242 0.0 0.0 0.00 0.00 0.00 34 1003.8
20260505031402 81 242 0.0 0.0 0.00 0.00 0.00 33 1003.8
20260505031308 81 242 0.0 1.0 0.00 0.00 0.00 33 1003.8
20260505031201 81 242 0.0 1.0 0.00 0.00 0.00 33 1003.8
20260505031117 82 242 0.0 1.0 0.00 0.00 0.00 33 1003.7
20260505031100 82 242 0.0 1.0 0.00 0.00 0.00 32 1003.7
20260505031050 82 242 0.0 1.0 0.00 0.00 0.00 31 1003.8
20260505030807 82 242 0.0 1.0 0.00 0.00 0.00 30 1003.8
20260505030756 82 242 0.0 1.0 0.00 0.00 0.00 30 1003.7
20260505030525 83 242 0.0 1.0 0.00 0.00 0.00 31 1003.7
20260505030202 83 248 0.0 1.0 0.00 0.00 0.00 29 1003.7
20260505030104 83 248 0.0 1.0 0.00 0.00 0.00 30 1003.7
20260505030002 83 248 0.0 1.0 0.00 0.00 0.00 29 1003.7
20260505025902 83 248 0.0 1.0 0.00 0.00 0.00 29 1003.6
20260505025801 83 248 0.0 1.0 0.00 0.00 0.00 29 1003.7
20260505025701 84 255 0.0 1.0 0.00 0.00 0.00 28 1003.7
20260505025605 84 255 0.0 1.0 0.00 0.00 0.00 28 1003.6
20260505025502 84 255 0.0 1.0 0.00 0.00 0.00 28 1003.6
20260505025404 84 255 0.0 1.0 0.00 0.00 0.00 28 1003.6
20260505025301 84 255 0.0 1.0 0.00 0.00 0.00 28 1003.6
20260505025156 84 255 0.0 1.0 0.00 0.00 0.00 28 1003.6
20260505025056 84 255 0.0 1.0 0.00 0.00 0.00 28 1003.6
20260505024956 85 255 0.0 1.0 0.00 0.00 0.00 27 1003.6
20260505024854 85 255 0.0 1.0 0.00 0.00 0.00 28 1003.6
20260505024755 85 255 0.0 1.0 0.00 0.00 0.00 27 1003.6
20260505024652 85 259 0.0 1.0 0.00 0.00 0.00 26 1003.4
20260505024551 85 259 0.0 2.0 0.00 0.00 0.00 27 1003.6
20260505024446 85 259 0.0 2.0 0.00 0.00 0.00 27 1003.6
20260505024421 85 275 0.0 2.0 0.00 0.00 0.00 26 1003.4
20260505024358 85 288 0.0 2.0 0.00 0.00 0.00 25 1003.4
20260505024032 85 300 0.0 2.0 0.00 0.00 0.00 25 1003.4
20260505023933 86 300 0.0 2.0 0.00 0.00 0.00 25 1003.6
20260505023829 86 299 1.0 2.0 0.00 0.00 0.00 25 1003.4
20260505023730 86 297 0.0 2.0 0.00 0.00 0.00 24 1003.4
20260505023630 86 266 0.0 1.0 0.00 0.00 0.00 23 1003.4
20260505023531 86 302 0.0 2.0 0.00 0.00 0.00 24 1003.6
20260505023432 86 302 0.0 2.0 0.00 0.00 0.00 24 1003.6
20260505023331 86 302 0.0 2.0 0.00 0.00 0.00 23 1003.6
20260505023230 86 302 0.0 2.0 0.00 0.00 0.00 23 1003.4
20260505023141 86 302 0.0 2.0 0.00 0.00 0.00 23 1003.4
20260505023125 86 300 0.0 2.0 0.00 0.00 0.00 23 1003.4
20260505023116 86 296 1.0 2.0 0.00 0.00 0.00 23 1003.4
20260505022720 87 307 1.0 2.0 0.00 0.00 0.00 23 1003.4
20260505022617 87 288 0.0 2.0 0.00 0.00 0.00 24 1003.4
20260505022518 87 313 0.0 2.0 0.00 0.00 0.00 24 1003.4
20260505022417 87 314 1.0 2.0 0.00 0.00 0.00 23 1003.4
20260505022313 87 327 1.0 2.0 0.00 0.00 0.00 23 1003.4
20260505022211 87 294 1.0 2.0 0.00 0.00 0.00 23 1003.4
20260505022111 87 305 0.0 1.0 0.00 0.00 0.00 23 1003.6
20260505022008 87 306 0.0 1.0 0.00 0.00 0.00 23 1003.4
20260505021936 87 302 0.0 1.0 0.00 0.00 0.00 23 1003.4
20260505021923 87 304 1.0 3.0 0.00 0.00 0.00 23 1003.6
20260505021901 87 290 1.0 3.0 0.00 0.00 0.00 23 1003.4
20260505021848 87 327 0.0 4.0 0.00 0.00 0.00 23 1003.4
20260505021305 87 352 0.0 4.0 0.00 0.00 0.00 23 1003.4
20260505021201 87 0 0.0 4.0 0.00 0.00 0.00 23 1003.4
20260505021107 87 0 1.0 4.0 0.00 0.00 0.00 23 1003.4
20260505021001 87 5 1.0 4.0 0.00 0.00 0.00 22 1003.4
20260505020945 87 352 1.0 4.0 0.00 0.00 0.00 22 1003.6
20260505020932 87 329 2.0 4.0 0.00 0.00 0.00 23 1003.4
20260505020601 88 20 2.0 4.0 0.00 0.00 0.00 22 1003.4
20260505020506 88 352 2.0 4.0 0.00 0.00 0.00 22 1003.4
20260505020401 88 19 1.0 3.0 0.00 0.00 0.00 21 1003.6
20260505020305 88 339 1.0 3.0 0.00 0.00 0.00 22 1003.6
20260505020214 88 318 1.0 4.0 0.00 0.00 0.00 22 1003.6
20260505020159 88 307 1.0 4.0 0.00 0.00 0.00 22 1003.6
20260505020146 88 348 1.0 4.0 0.00 0.00 0.00 22 1003.6
20260505015842 88 313 1.0 8.0 0.00 0.00 0.00 22 1003.6
20260505015820 88 352 2.0 8.0 0.00 0.00 0.00 22 1003.6
20260505015504 88 30 1.0 8.0 0.00 0.00 0.00 22 1003.7
20260505015436 88 314 2.0 8.0 0.00 0.00 0.00 22 1003.6
20260505015421 88 306 2.0 8.0 0.00 0.00 0.00 21 1003.7
20260505015357 88 302 2.0 8.0 0.00 0.00 0.00 21 1003.7
20260505015345 88 337 3.0 8.0 0.00 0.00 0.00 22 1003.6
20260505014836 88 330 2.0 4.0 0.00 0.00 0.00 22 1003.7
20260505014812 88 0 1.0 4.0 0.00 0.00 0.00 22 1003.7
20260505014800 88 263 1.0 4.0 0.00 0.00 0.00 22 1003.8
20260505014529 88 350 1.0 4.0 0.00 0.00 0.00 22 1003.8
20260505014242 88 305 2.0 4.0 0.00 0.00 0.00 21 1003.8
20260505014232 88 10 2.0 4.0 0.00 0.00 0.00 22 1003.8
20260505014208 88 315 2.0 4.0 0.00 0.00 0.00 22 1003.8
20260505013934 88 286 1.0 4.0 0.00 0.00 0.00 22 1003.8
20260505013601 88 277 2.0 4.0 0.00 0.00 0.00 23 1003.9
20260505013503 88 343 2.0 4.0 0.00 0.00 0.00 22 1003.8
20260505013402 88 352 2.0 4.0 0.00 0.00 0.00 22 1003.8
20260505013301 89 5 2.0 4.0 0.00 0.00 0.00 22 1003.9
20260505013203 89 36 2.0 4.0 0.00 0.00 0.00 21 1003.9
20260505013109 89 352 1.0 4.0 0.00 0.00 0.00 21 1003.9
20260505013000 88 11 2.0 4.0 0.00 0.00 0.00 21 1003.9
20260505012901 89 286 3.0 4.0 0.00 0.00 0.00 21 1003.9
20260505012802 89 294 2.0 4.0 0.00 0.00 0.00 21 1003.8
20260505012701 89 279 2.0 4.0 0.00 0.00 0.00 21 1003.9
20260505012600 89 350 2.0 4.0 0.00 0.00 0.00 22 1003.9
20260505012501 89 5 2.0 4.0 0.00 0.00 0.00 22 1003.9
20260505012401 89 309 1.0 4.0 0.00 0.00 0.00 22 1003.9
20260505012301 89 34 2.0 4.0 0.00 0.00 0.00 22 1004.0
20260505012203 89 295 1.0 4.0 0.00 0.00 0.00 22 1004.0
20260505012124 89 346 1.0 5.0 0.00 0.00 0.00 22 1004.0
20260505012110 89 300 1.0 5.0 0.00 0.00 0.00 21 1004.0
20260505012059 89 321 2.0 5.0 0.00 0.00 0.00 22 1004.0
20260505011816 89 329 2.0 5.0 0.00 0.00 0.00 23 1004.0
20260505011454 89 273 2.0 5.0 0.00 0.00 0.00 23 1004.1
20260505011353 89 326 3.0 5.0 0.00 0.00 0.00 23 1004.1
20260505011254 89 307 3.0 5.0 0.00 0.00 0.00 23 1004.2
20260505011152 89 346 2.0 5.0 0.00 0.00 0.00 23 1004.1
20260505011054 89 341 2.0 5.0 0.00 0.00 0.00 23 1004.1
20260505010951 89 5 1.0 4.0 0.00 0.00 0.00 24 1004.2
20260505010853 89 10 2.0 3.0 0.00 0.00 0.00 23 1004.2
20260505010743 89 351 2.0 3.0 0.00 0.00 0.00 22 1004.1
20260505010644 89 15 1.0 3.0 0.00 0.00 0.00 21 1004.1
20260505010537 89 0 1.0 3.0 0.00 0.00 0.00 21 1004.1
20260505010436 89 350 1.0 3.0 0.00 0.00 0.00 22 1004.1
20260505010336 89 38 2.0 3.0 0.00 0.00 0.00 22 1004.1
20260505010239 89 49 1.0 3.0 0.00 0.00 0.00 22 1004.1
20260505010137 89 100 0.0 3.0 0.00 0.00 0.00 21 1004.1
20260505010034 89 9 1.0 4.0 0.00 0.00 0.00 21 1004.1
20260505005933 89 61 1.0 4.0 0.00 0.00 0.00 21 1004.1
20260505005839 89 64 2.0 4.0 0.00 0.00 0.00 21 1004.1
20260505005731 89 52 2.0 4.0 0.00 0.00 0.00 22 1004.1
20260505005631 89 5 2.0 4.0 0.00 0.00 0.00 21 1004.1
20260505005601 89 105 1.0 4.0 0.00 0.00 0.00 21 1004.1
20260505005550 89 58 1.0 4.0 0.00 0.00 0.00 21 1004.1
20260505005229 89 227 1.0 4.0 0.00 0.00 0.00 22 1004.2
20260505005130 89 162 1.0 4.0 0.00 0.00 0.00 22 1004.2
20260505005101 89 188 1.0 4.0 0.00 0.00 0.00 21 1004.2
20260505005049 89 190 1.0 4.0 0.00 0.00 0.00 22 1004.2
20260505004729 88 165 1.0 4.0 0.00 0.00 0.00 22 1004.2
20260505004629 88 65 2.0 4.0 0.00 0.00 0.00 21 1004.2
20260505004529 88 40 3.0 5.0 0.00 0.00 0.00 22 1004.3
20260505004431 88 352 3.0 5.0 0.00 0.00 0.00 22 1004.3
20260505004329 88 352 2.0 5.0 0.00 0.00 0.00 23 1004.3
20260505004230 88 336 2.0 5.0 0.00 0.00 0.00 23 1004.3
20260505004129 88 352 2.0 5.0 0.00 0.00 0.00 23 1004.3
20260505004029 88 352 3.0 5.0 0.00 0.00 0.00 23 1004.3
20260505003929 88 342 3.0 5.0 0.00 0.00 0.00 24 1004.3
20260505003831 88 338 3.0 5.0 0.00 0.00 0.00 24 1004.4
20260505003754 88 321 3.0 5.0 0.00 0.00 0.00 23 1004.3
20260505003729 88 315 2.0 5.0 0.00 0.00 0.00 24 1004.4
20260505003717 88 20 2.0 5.0 0.00 0.00 0.00 25 1004.4
20260505003706 88 352 2.0 5.0 0.00 0.00 0.00 24 1004.3
20260505003434 88 90 3.0 7.0 0.00 0.00 0.00 23 1004.3
20260505003144 89 11 3.0 7.0 0.00 0.00 0.00 23 1004.3
20260505002845 89 60 2.0 7.0 0.00 0.00 0.00 22 1004.4
20260505002831 89 162 2.0 7.0 0.00 0.00 0.00 22 1004.4
20260505002808 89 85 2.0 7.0 0.00 0.00 0.00 22 1004.4
20260505002420 89 128 3.0 7.0 0.00 0.00 0.00 22 1004.4
20260505002319 89 238 1.0 4.0 0.00 0.00 0.00 22 1004.4
20260505002219 89 309 1.0 4.0 0.00 0.00 0.00 22 1004.4
20260505002117 89 269 2.0 4.0 0.00 0.00 0.00 22 1004.4
20260505002022 89 352 2.0 5.0 0.00 0.00 0.00 23 1004.4
20260505002003 89 310 2.0 6.0 0.00 0.00 0.00 24 1004.5
20260505001952 88 9 1.0 6.0 0.00 0.00 0.00 25 1004.4
20260505001940 88 223 1.0 6.0 0.00 0.00 0.00 23 1004.4
20260505001659 88 234 1.0 6.0 0.00 0.00 0.00 24 1004.5
20260505001425 88 305 2.0 6.0 0.00 0.00 0.00 24 1004.5
20260505001414 88 48 4.0 6.0 0.00 0.00 0.00 25 1004.5
20260505001126 88 350 3.0 5.0 0.00 0.00 0.00 25 1004.5
20260505000805 88 74 1.0 6.0 0.00 0.00 0.00 24 1004.5
20260505000703 88 84 2.0 6.0 0.00 0.00 0.00 24 1004.5
20260505000603 88 286 2.0 6.0 0.00 0.00 0.00 24 1004.5
20260505000502 88 248 2.0 6.0 0.00 0.00 0.00 24 1004.5
20260505000405 88 255 2.0 6.0 0.00 0.00 0.00 24 1004.5
20260505000303 88 261 2.0 6.0 0.00 0.00 0.00 24 1004.6
20260505000204 88 289 4.0 6.0 0.00 0.00 0.00 24 1004.5
20260505000104 88 302 4.0 6.0 0.00 0.00 0.00 25 1004.5
20260505000003 88 5 3.0 6.0 0.00 0.00 0.00 25 1004.5
20260504235901 88 28 2.0 4.0 0.00 0.00 0.00 25 1004.5
20260504235803 88 62 2.0 4.0 0.00 0.00 0.00 26 1004.5
20260504235728 88 69 2.0 4.0 0.00 0.00 0.00 26 1004.6
20260504235705 88 61 2.0 4.0 0.00 0.00 0.00 25 1004.5
20260504235653 88 38 2.0 4.0 0.00 0.00 0.00 24 1004.5
20260504235301 88 57 2.0 4.0 0.00 0.00 0.00 25 1004.6
20260504235202 88 101 2.0 4.0 0.00 0.00 0.00 24 1004.5
20260504235104 88 39 3.0 7.0 0.00 0.00 0.00 25 1004.5
20260504235005 88 53 3.0 7.0 0.00 0.00 0.00 25 1004.6
20260504234902 88 62 3.0 7.0 0.00 0.00 0.00 24 1004.6
20260504234803 88 94 2.0 7.0 0.00 0.00 0.00 24 1004.6
20260504234702 88 104 2.0 7.0 0.00 0.00 0.00 25 1004.5
20260504234602 88 127 3.0 7.0 0.00 0.00 0.00 25 1004.5
20260504234501 88 125 2.0 7.0 0.00 0.00 0.00 24 1004.5
20260504234401 88 115 3.0 7.0 0.00 0.00 0.00 25 1004.5
20260504234300 88 100 3.0 7.0 0.00 0.00 0.00 24 1004.5
20260504234205 88 66 2.0 7.0 0.00 0.00 0.00 25 1004.6
20260504234132 88 84 2.0 6.0 0.00 0.00 0.00 25 1004.6
20260504234117 88 115 3.0 6.0 0.00 0.00 0.00 25 1004.6
20260504234106 88 352 3.0 6.0 0.00 0.00 0.00 25 1004.6
20260504234053 88 61 2.0 6.0 0.00 0.00 0.00 25 1004.6
20260504233500 88 63 2.0 8.0 0.00 0.00 0.00 26 1004.6
20260504233402 88 9 2.0 8.0 0.00 0.00 0.00 25 1004.6
20260504233302 88 53 3.0 8.0 0.00 0.00 0.00 26 1004.5
20260504233204 87 319 3.0 8.0 0.00 0.00 0.00 25 1004.5
20260504233104 88 0 4.0 8.0 0.00 0.00 0.00 25 1004.5
20260504233001 88 0 4.0 8.0 0.00 0.00 0.00 25 1004.5
20260504232938 88 0 4.0 8.0 0.00 0.00 0.00 24 1004.6
20260504232925 88 352 2.0 8.0 0.00 0.00 0.00 26 1004.5
20260504232636 88 352 3.0 6.0 0.00 0.00 0.00 24 1004.5
20260504232624 88 34 4.0 6.0 0.00 0.00 0.00 24 1004.5
20260504232613 88 347 3.0 6.0 0.00 0.00 0.00 24 1004.6
20260504232601 88 5 2.0 5.0 0.00 0.00 0.00 24 1004.5
20260504232520 88 32 1.0 6.0 0.00 0.00 0.00 25 1004.6
20260504232455 88 24 1.0 6.0 0.00 0.00 0.00 25 1004.5
20260504232225 88 221 2.0 6.0 0.00 0.00 0.00 24 1004.6
20260504231951 88 322 1.0 6.0 0.00 0.00 0.00 24 1004.6
20260504231709 88 26 3.0 6.0 0.00 0.00 0.00 24 1004.6
20260504231141 88 32 2.0 6.0 0.00 0.00 0.00 25 1004.6
20260504231028 88 352 2.0 6.0 0.00 0.00 0.00 24 1004.6
20260504230930 88 316 3.0 6.0 0.00 0.00 0.00 25 1004.7
20260504230856 88 44 3.0 6.0 0.00 0.00 0.00 25 1004.7
20260504230841 88 88 2.0 6.0 0.00 0.00 0.00 26 1004.7
20260504230829 88 53 1.0 5.0 0.00 0.00 0.00 26 1004.7
20260504230804 88 288 2.0 5.0 0.00 0.00 0.00 25 1004.6
20260504230534 88 85 3.0 5.0 0.00 0.00 0.00 26 1004.7
20260504230520 88 5 2.0 5.0 0.00 0.00 0.00 25 1004.7
20260504225932 88 317 4.0 5.0 0.00 0.00 0.00 25 1004.8
20260504225828 88 29 3.0 5.0 0.00 0.00 0.00 25 1004.8
20260504225733 88 330 2.0 8.0 0.00 0.00 0.00 26 1004.8
20260504225652 88 25 1.0 9.0 0.00 0.00 0.00 25 1004.7
20260504225626 88 17 2.0 9.0 0.00 0.00 0.00 25 1004.7
20260504225616 88 209 3.0 9.0 0.00 0.00 0.00 24 1004.7
20260504225605 88 70 2.0 9.0 0.00 0.00 0.00 24 1004.8
20260504225551 88 77 2.0 9.0 0.00 0.00 0.00 24 1004.8
20260504224932 88 20 3.0 9.0 0.00 0.00 0.00 25 1004.8
20260504224831 88 346 4.0 9.0 0.00 0.00 0.00 24 1004.8
20260504224731 88 5 3.0 9.0 0.00 0.00 0.00 25 1004.8
20260504224630 88 346 2.0 5.0 0.00 0.00 0.00 26 1004.8
20260504224531 88 266 1.0 4.0 0.00 0.00 0.00 25 1004.7
20260504224429 88 254 1.0 4.0 0.00 0.00 0.00 26 1004.8
20260504224330 88 327 2.0 4.0 0.00 0.00 0.00 25 1004.8
20260504224229 87 306 2.0 5.0 0.00 0.00 0.00 25 1004.8
20260504224130 87 260 2.0 6.0 0.00 0.00 0.00 25 1004.8
20260504224028 87 5 2.0 6.0 0.00 0.00 0.00 27 1004.9
20260504223930 87 64 2.0 6.0 0.00 0.00 0.00 25 1004.9
20260504223855 87 184 2.0 7.0 0.00 0.00 0.00 26 1004.9
20260504223844 87 252 2.0 7.0 0.00 0.00 0.00 25 1005.0
20260504223831 87 248 2.0 7.0 0.00 0.00 0.00 26 1005.0
20260504223809 87 19 2.0 7.0 0.00 0.00 0.00 25 1005.0
20260504223229 87 330 2.0 7.0 0.00 0.00 0.00 26 1005.1
20260504223133 87 79 3.0 7.0 0.00 0.00 0.00 25 1005.0
20260504223029 87 68 3.0 7.0 0.00 0.00 0.00 25 1005.0
20260504222931 87 13 2.0 7.0 0.00 0.00 0.00 25 1005.1
20260504222829 87 74 3.0 5.0 0.00 0.00 0.00 25 1005.1
20260504222733 87 83 3.0 5.0 0.00 0.00 0.00 25 1005.1
20260504222632 87 40 3.0 7.0 0.00 0.00 0.00 27 1005.2
20260504222604 87 352 2.0 7.0 0.00 0.00 0.00 25 1005.1
20260504222552 87 9 1.0 7.0 0.00 0.00 0.00 25 1005.2
20260504222229 87 264 2.0 7.0 0.00 0.00 0.00 25 1005.2
20260504222130 87 260 2.0 7.0 0.00 0.00 0.00 25 1005.2
20260504222057 87 274 2.0 7.0 0.00 0.00 0.00 25 1005.2
20260504222044 87 287 3.0 7.0 0.00 0.00 0.00 26 1005.2
20260504221724 86 336 2.0 7.0 0.00 0.00 0.00 26 1005.3
20260504221621 86 352 2.0 6.0 0.00 0.00 0.00 25 1005.3
20260504221523 86 53 2.0 8.0 0.00 0.00 0.00 25 1005.3
20260504221447 86 47 2.0 8.0 0.00 0.00 0.00 25 1005.3
20260504221437 86 5 2.0 8.0 0.00 0.00 0.00 27 1005.4
20260504221118 86 67 2.0 9.0 0.00 0.00 0.00 26 1005.4
20260504221047 86 46 3.0 9.0 0.00 0.00 0.00 25 1005.4
20260504221034 86 62 2.0 9.0 0.00 0.00 0.00 25 1005.4
20260504220714 86 115 3.0 9.0 0.00 0.00 0.00 25 1005.4
20260504220614 87 86 3.0 9.0 0.00 0.00 0.00 26 1005.4
20260504220510 87 338 2.0 9.0 0.00 0.00 0.00 25 1005.5
20260504220407 87 308 3.0 9.0 0.00 0.00 0.00 26 1005.5
20260504220309 87 164 3.0 9.0 0.00 0.00 0.00 25 1005.5
20260504220207 87 11 3.0 9.0 0.00 0.00 0.00 26 1005.5
20260504220110 87 65 3.0 9.0 0.00 0.00 0.00 26 1005.5
20260504220006 87 69 3.0 9.0 0.00 0.00 0.00 25 1005.5
20260504215909 87 113 2.0 5.0 0.00 0.00 0.00 26 1005.5
20260504215852 87 5 1.0 5.0 0.00 0.00 0.00 25 1005.5
20260504215841 86 323 2.0 5.0 0.00 0.00 0.00 25 1005.5
20260504215829 86 28 2.0 6.0 0.00 0.00 0.00 26 1005.5
20260504215809 86 299 2.0 8.0 0.00 0.00 0.00 26 1005.5
20260504215757 86 333 1.0 8.0 0.00 0.00 0.00 25 1005.5
20260504215525 86 350 2.0 8.0 0.00 0.00 0.00 25 1005.5
20260504214901 86 351 3.0 8.0 0.00 0.00 0.00 26 1005.7
20260504214804 86 13 5.0 8.0 0.00 0.00 0.00 26 1005.7
20260504214702 86 275 4.0 8.0 0.00 0.00 0.00 27 1005.7
20260504214607 86 313 2.0 8.0 0.00 0.00 0.00 27 1005.7
20260504214457 86 334 3.0 8.0 0.00 0.00 0.00 26 1005.7
20260504214427 86 281 4.0 8.0 0.00 0.00 0.00 25 1005.6
20260504214414 86 294 2.0 6.0 0.00 0.00 0.00 26 1005.7
20260504214054 86 306 3.0 6.0 0.00 0.00 0.00 27 1005.7
20260504213913 86 255 4.0 8.0 0.00 0.00 0.00 26 1005.8
20260504213814 86 329 4.0 8.0 0.00 0.00 0.00 27 1005.8
20260504213716 86 277 3.0 8.0 0.00 0.00 0.00 25 1005.8
20260504213649 86 36 3.0 8.0 0.00 0.00 0.00 25 1005.9
20260504213636 87 0 3.0 8.0 0.00 0.00 0.00 27 1005.8
20260504213623 86 74 1.0 8.0 0.00 0.00 0.00 26 1005.8
20260504213611 86 22 2.0 8.0 0.00 0.00 0.00 25 1005.8
20260504213559 86 11 2.0 8.0 0.00 0.00 0.00 26 1005.9
20260504213538 86 289 2.0 8.0 0.00 0.00 0.00 26 1005.8
20260504213306 86 38 3.0 8.0 0.00 0.00 0.00 26 1005.8
20260504213254 86 164 4.0 8.0 0.00 0.00 0.00 26 1005.8
20260504213243 86 283 4.0 7.0 0.00 0.00 0.00 25 1005.8
20260504212959 86 298 2.0 7.0 0.00 0.00 0.00 26 1005.8
20260504212505 86 308 2.0 7.0 0.00 0.00 0.00 25 1005.9
20260504212443 86 349 4.0 7.0 0.00 0.00 0.00 26 1006.0
20260504211922 86 321 3.0 7.0 0.00 0.00 0.00 26 1006.0
20260504211601 86 290 2.0 6.0 0.00 0.00 0.00 29 1006.0
20260504211502 85 306 2.0 5.0 0.00 0.00 0.00 28 1006.0
20260504211431 85 346 2.0 5.0 0.00 0.00 0.00 28 1006.0
20260504211420 85 16 2.0 5.0 0.00 0.00 0.00 26 1006.0
20260504211058 85 321 2.0 5.0 0.00 0.00 0.00 27 1006.1
20260504211000 85 315 2.0 8.0 0.00 0.00 0.00 29 1006.1
20260504210857 85 313 2.0 9.0 0.00 0.00 0.00 27 1006.1
20260504210757 85 46 2.0 9.0 0.00 0.00 0.00 27 1006.1
20260504210656 85 28 3.0 9.0 0.00 0.00 0.00 28 1006.2
20260504210555 85 309 3.0 9.0 0.00 0.00 0.00 27 1006.2
20260504210454 85 304 3.0 9.0 0.00 0.00 0.00 30 1006.2
20260504210425 85 25 2.0 9.0 0.00 0.00 0.00 27 1006.2
20260504210414 85 0 3.0 9.0 0.00 0.00 0.00 29 1006.2
20260504210051 84 332 4.0 9.0 0.00 0.00 0.00 27 1006.3
20260504205949 85 294 4.0 9.0 0.00 0.00 0.00 28 1006.2
20260504205849 85 327 3.0 9.0 0.00 0.00 0.00 28 1006.3
20260504205748 85 254 3.0 9.0 0.00 0.00 0.00 27 1006.3
20260504205647 85 273 3.0 9.0 0.00 0.00 0.00 27 1006.3
20260504205547 85 15 4.0 9.0 0.00 0.00 0.00 26 1006.3
20260504205447 85 286 5.0 9.0 0.00 0.00 0.00 28 1006.4
20260504205419 85 323 4.0 9.0 0.00 0.00 0.00 29 1006.4
20260504205408 85 288 4.0 9.0 0.00 0.00 0.00 29 1006.4
20260504205051 85 345 2.0 8.0 0.00 0.00 0.00 29 1006.4
20260504205037 84 318 2.0 8.0 0.00 0.00 0.00 28 1006.4
20260504205026 84 0 3.0 8.0 0.00 0.00 0.00 27 1006.4
20260504205014 84 322 4.0 8.0 0.00 0.00 0.00 26 1006.5
20260504204932 84 317 2.0 8.0 0.00 0.00 0.00 28 1006.5